Time,TemperatureF,DewpointF,PressureIn,WindDirection,WindDirectionDegrees,WindSpeedMPH,WindSpeedGustMPH,Humidity,HourlyPrecipIn,Conditions,Clouds,dailyrainin,SoftwareType,DateUTC
2013-01-21 00:05:00,39.7,29.6,30.20,ENE,64,1.0,1.0,67,0.00,,,0.00,Wunderground v.1.15,2013-01-21 05:05:00,
2013-01-21 00:15:00,39.3,29.3,30.20,ENE,64,1.0,1.0,67,0.00,,,0.00,Wunderground v.1.15,2013-01-21 05:15:00,
2013-01-21 00:20:00,39.4,28.6,30.19,ENE,63,1.0,5.0,65,0.00,,,0.00,Wunderground v.1.15,2013-01-21 05:20:00,
2013-01-21 00:30:00,39.5,29.1,30.19,ENE,64,0.0,5.0,66,0.00,,,0.00,Wunderground v.1.15,2013-01-21 05:30:00,
2013-01-21 00:35:00,39.3,29.3,30.19,ENE,64,0.0,5.0,67,0.00,,,0.00,Wunderground v.1.15,2013-01-21 05:35:00,
2013-01-21 00:40:00,39.1,29.1,30.19,ENE,64,0.0,5.0,67,0.00,,,0.00,Wunderground v.1.15,2013-01-21 05:40:00,
2013-01-21 00:45:00,38.7,29.0,30.19,ENE,64,0.0,5.0,68,0.00,,,0.00,Wunderground v.1.15,2013-01-21 05:45:00,
2013-01-21 00:50:00,38.6,28.9,30.19,ENE,64,0.0,5.0,68,0.00,,,0.00,Wunderground v.1.15,2013-01-21 05:50:00,
2013-01-21 00:55:00,38.5,29.2,30.19,ENE,64,0.0,5.0,69,0.00,,,0.00,Wunderground v.1.15,2013-01-21 05:55:00,
2013-01-21 01:05:00,38.1,29.2,30.19,ENE,64,0.0,5.0,70,0.00,,,0.00,Wunderground v.1.15,2013-01-21 06:05:00,
2013-01-21 01:10:00,38.1,28.8,30.19,ENE,64,0.0,5.0,69,0.00,,,0.00,Wunderground v.1.15,2013-01-21 06:10:00,
2013-01-21 01:15:00,38.3,28.7,30.19,ENE,64,1.0,5.0,68,0.00,,,0.00,Wunderground v.1.15,2013-01-21 06:15:00,
2013-01-21 01:20:00,38.4,28.8,30.18,ENE,64,0.0,5.0,68,0.00,,,0.00,Wunderground v.1.15,2013-01-21 06:20:00,
2013-01-21 01:25:00,38.5,28.5,30.19,ENE,64,0.0,5.0,67,0.00,,,0.00,Wunderground v.1.15,2013-01-21 06:25:00,
2013-01-21 01:30:00,38.5,28.5,30.19,ENE,64,0.0,5.0,67,0.00,,,0.00,Wunderground v.1.15,2013-01-21 06:30:00,
2013-01-21 01:35:00,38.6,28.6,30.19,ENE,63,1.0,1.0,67,0.00,,,0.00,Wunderground v.1.15,2013-01-21 06:35:00,
2013-01-21 01:40:00,38.6,28.6,30.19,ENE,64,0.0,5.0,67,0.00,,,0.00,Wunderground v.1.15,2013-01-21 06:40:00,
2013-01-21 01:45:00,38.5,28.9,30.19,ESE,113,0.0,5.0,68,0.00,,,0.00,Wunderground v.1.15,2013-01-21 06:45:00,
2013-01-21 01:50:00,38.5,28.5,30.19,ESE,113,0.0,5.0,67,0.00,,,0.00,Wunderground v.1.15,2013-01-21 06:50:00,
2013-01-21 01:55:00,38.5,28.9,30.19,ESE,113,1.0,1.0,68,0.00,,,0.00,Wunderground v.1.15,2013-01-21 06:55:00,
2013-01-21 02:05:00,38.5,28.1,30.19,ESE,113,0.0,5.0,66,0.00,,,0.00,Wunderground v.1.15,2013-01-21 07:05:00,
2013-01-21 02:10:00,38.4,28.4,30.19,ESE,113,0.0,5.0,67,0.00,,,0.00,Wunderground v.1.15,2013-01-21 07:10:00,
2013-01-21 02:15:00,38.4,28.4,30.19,ESE,111,0.0,5.0,67,0.00,,,0.00,Wunderground v.1.15,2013-01-21 07:15:00,
2013-01-21 02:20:00,38.3,27.9,30.19,ESE,111,0.0,5.0,66,0.00,,,0.00,Wunderground v.1.15,2013-01-21 07:20:00,
2013-01-21 02:25:00,38.4,27.7,30.19,SSE,162,0.0,5.0,65,0.00,,,0.00,Wunderground v.1.15,2013-01-21 07:25:00,
2013-01-21 02:30:00,38.6,27.8,30.19,SE,143,1.0,5.0,65,0.00,,,0.00,Wunderground v.1.15,2013-01-21 07:30:00,
2013-01-21 02:35:00,38.5,27.7,30.19,SE,143,0.0,5.0,65,0.00,,,0.00,Wunderground v.1.15,2013-01-21 07:35:00,
2013-01-21 02:40:00,38.2,27.5,30.19,SE,143,0.0,5.0,65,0.00,,,0.00,Wunderground v.1.15,2013-01-21 07:40:00,
2013-01-21 02:45:00,38.2,28.2,30.19,SE,142,1.0,1.0,67,0.00,,,0.00,Wunderground v.1.15,2013-01-21 07:45:00,
2013-01-21 02:50:00,38.1,28.1,30.19,SE,142,1.0,5.0,67,0.00,,,0.00,Wunderground v.1.15,2013-01-21 07:50:00,
2013-01-21 02:55:00,38.0,28.0,30.19,SE,142,0.0,5.0,67,0.00,,,0.00,Wunderground v.1.15,2013-01-21 07:55:00,
2013-01-21 03:05:00,37.6,28.0,30.19,SE,142,0.0,5.0,68,0.00,,,0.00,Wunderground v.1.15,2013-01-21 08:05:00,
2013-01-21 03:10:00,37.5,27.9,30.19,SE,142,0.0,5.0,68,0.00,,,0.00,Wunderground v.1.15,2013-01-21 08:10:00,
2013-01-21 03:15:00,37.5,27.9,30.19,WNW,298,1.0,5.0,68,0.00,,,0.00,Wunderground v.1.15,2013-01-21 08:15:00,
2013-01-21 03:20:00,37.8,27.8,30.18,SSE,159,1.0,5.0,67,0.00,,,0.00,Wunderground v.1.15,2013-01-21 08:20:00,
2013-01-21 03:25:00,38.0,28.4,30.18,SSE,159,1.0,5.0,68,0.00,,,0.00,Wunderground v.1.15,2013-01-21 08:25:00,
2013-01-21 03:30:00,38.0,28.0,30.18,SSE,150,1.0,5.0,67,0.00,,,0.00,Wunderground v.1.15,2013-01-21 08:30:00,
2013-01-21 03:35:00,38.2,28.6,30.18,SE,141,1.0,5.0,68,0.00,,,0.00,Wunderground v.1.15,2013-01-21 08:35:00,
2013-01-21 03:40:00,38.2,28.6,30.18,SE,142,1.0,5.0,68,0.00,,,0.00,Wunderground v.1.15,2013-01-21 08:40:00,
2013-01-21 03:45:00,37.9,27.9,30.18,SE,140,1.0,5.0,67,0.00,,,0.00,Wunderground v.1.15,2013-01-21 08:45:00,
2013-01-21 03:55:00,37.8,28.2,30.17,SE,138,1.0,1.0,68,0.00,,,0.00,Wunderground v.1.15,2013-01-21 08:55:00,
2013-01-21 04:05:00,37.4,27.1,30.18,SE,136,0.0,5.0,66,0.00,,,0.00,Wunderground v.1.15,2013-01-21 09:05:00,
2013-01-21 04:10:00,37.6,26.9,30.17,ENE,64,1.0,5.0,65,0.00,,,0.00,Wunderground v.1.15,2013-01-21 09:10:00,
2013-01-21 04:15:00,37.5,26.8,30.17,ENE,64,1.0,1.0,65,0.00,,,0.00,Wunderground v.1.15,2013-01-21 09:15:00,
2013-01-21 04:20:00,37.5,27.2,30.17,ENE,65,1.0,2.0,66,0.00,,,0.00,Wunderground v.1.15,2013-01-21 09:20:00,
2013-01-21 04:30:00,37.2,26.9,30.16,ENE,63,1.0,5.0,66,0.00,,,0.00,Wunderground v.1.15,2013-01-21 09:30:00,
2013-01-21 04:40:00,36.9,27.0,30.17,SSE,150,0.0,5.0,67,0.00,,,0.00,Wunderground v.1.15,2013-01-21 09:40:00,
2013-01-21 04:45:00,36.9,26.6,30.17,SSE,147,1.0,1.0,66,0.00,,,0.00,Wunderground v.1.15,2013-01-21 09:45:00,
2013-01-21 04:55:00,36.3,26.4,30.17,SE,134,0.0,5.0,67,0.00,,,0.00,Wunderground v.1.15,2013-01-21 09:55:00,
2013-01-21 05:05:00,36.4,26.8,30.17,ESE,115,1.0,1.0,68,0.00,,,0.00,Wunderground v.1.15,2013-01-21 10:05:00,
2013-01-21 05:10:00,36.4,26.8,30.16,ESE,115,1.0,5.0,68,0.00,,,0.00,Wunderground v.1.15,2013-01-21 10:10:00,
2013-01-21 05:15:00,36.3,26.7,30.16,SE,134,1.0,1.0,68,0.00,,,0.00,Wunderground v.1.15,2013-01-21 10:15:00,
2013-01-21 05:20:00,36.2,26.6,30.16,SSE,160,1.0,5.0,68,0.00,,,0.00,Wunderground v.1.15,2013-01-21 10:20:00,
2013-01-21 05:25:00,36.0,26.8,30.16,SSE,160,1.0,1.0,69,0.00,,,0.00,Wunderground v.1.15,2013-01-21 10:25:00,
2013-01-21 05:30:00,35.8,27.0,30.16,SSE,160,0.0,5.0,70,0.00,,,0.00,Wunderground v.1.15,2013-01-21 10:30:00,
2013-01-21 05:35:00,35.6,26.8,30.16,SSE,160,0.0,5.0,70,0.00,,,0.00,Wunderground v.1.15,2013-01-21 10:35:00,
2013-01-21 05:40:00,35.4,26.9,30.16,SSE,160,1.0,5.0,71,0.00,,,0.00,Wunderground v.1.15,2013-01-21 10:40:00,
2013-01-21 05:45:00,35.2,26.7,30.16,SSE,160,0.0,5.0,71,0.00,,,0.00,Wunderground v.1.15,2013-01-21 10:45:00,
2013-01-21 05:55:00,34.6,26.8,30.16,SSE,160,0.0,5.0,73,0.00,,,0.00,Wunderground v.1.15,2013-01-21 10:55:00,
2013-01-21 06:05:00,34.5,26.7,30.16,SSE,160,0.0,5.0,73,0.00,,,0.00,Wunderground v.1.15,2013-01-21 11:05:00,
2013-01-21 06:10:00,34.4,26.6,30.16,SSE,160,0.0,5.0,73,0.00,,,0.00,Wunderground v.1.15,2013-01-21 11:10:00,
2013-01-21 06:15:00,34.3,26.5,30.16,SSE,160,0.0,5.0,73,0.00,,,0.00,Wunderground v.1.15,2013-01-21 11:15:00,
2013-01-21 06:20:00,34.4,26.6,30.16,SSE,160,0.0,5.0,73,0.00,,,0.00,Wunderground v.1.15,2013-01-21 11:20:00,
2013-01-21 06:25:00,34.4,26.3,30.16,SSE,160,0.0,5.0,72,0.00,,,0.00,Wunderground v.1.15,2013-01-21 11:25:00,
2013-01-21 06:30:00,34.5,26.4,30.16,SSE,160,0.0,5.0,72,0.00,,,0.00,Wunderground v.1.15,2013-01-21 11:30:00,
2013-01-21 06:40:00,34.5,26.7,30.16,SSE,160,0.0,5.0,73,0.00,,,0.00,Wunderground v.1.15,2013-01-21 11:40:00,
2013-01-21 06:45:00,34.4,26.3,30.16,SSE,160,0.0,5.0,72,0.00,,,0.00,Wunderground v.1.15,2013-01-21 11:45:00,
2013-01-21 06:50:00,34.5,26.4,30.16,SSE,160,0.0,5.0,72,0.00,,,0.00,Wunderground v.1.15,2013-01-21 11:50:00,
2013-01-21 06:55:00,34.5,26.4,30.16,SSE,160,0.0,5.0,72,0.00,,,0.00,Wunderground v.1.15,2013-01-21 11:55:00,
2013-01-21 07:05:00,34.5,26.1,30.16,SSE,160,0.0,5.0,71,0.00,,,0.00,Wunderground v.1.15,2013-01-21 12:05:00,
2013-01-21 07:10:00,34.6,26.2,30.16,SSE,160,0.0,5.0,71,0.00,,,0.00,Wunderground v.1.15,2013-01-21 12:10:00,
2013-01-21 07:15:00,34.9,26.1,30.16,SSE,160,0.0,5.0,70,0.00,,,0.00,Wunderground v.1.15,2013-01-21 12:15:00,
2013-01-21 07:25:00,35.3,25.8,30.16,SSE,160,0.0,5.0,68,0.00,,,0.00,Wunderground v.1.15,2013-01-21 12:25:00,
2013-01-21 07:30:00,35.4,25.9,30.16,SSE,160,0.0,5.0,68,0.00,,,0.00,Wunderground v.1.15,2013-01-21 12:30:00,
2013-01-21 07:40:00,35.6,26.1,30.17,SSE,160,0.0,5.0,68,0.00,,,0.00,Wunderground v.1.15,2013-01-21 12:40:00,
2013-01-21 07:45:00,35.6,26.4,30.17,SSE,148,1.0,1.0,69,0.00,,,0.00,Wunderground v.1.15,2013-01-21 12:45:00,
2013-01-21 07:50:00,35.6,26.4,30.17,SSE,148,1.0,5.0,69,0.00,,,0.00,Wunderground v.1.15,2013-01-21 12:50:00,
2013-01-21 07:55:00,35.9,26.7,30.17,SSE,148,1.0,5.0,69,0.00,,,0.00,Wunderground v.1.15,2013-01-21 12:55:00,
2013-01-21 08:05:00,36.7,26.0,30.17,ENE,60,1.0,5.0,65,0.00,,,0.00,Wunderground v.1.15,2013-01-21 13:05:00,
2013-01-21 08:10:00,36.7,26.4,30.17,ENE,60,2.0,5.0,66,0.00,,,0.00,Wunderground v.1.15,2013-01-21 13:10:00,
2013-01-21 08:15:00,36.4,26.1,30.17,ENE,60,1.0,1.0,66,0.00,,,0.00,Wunderground v.1.15,2013-01-21 13:15:00,
2013-01-21 08:20:00,36.1,26.9,30.17,ENE,60,1.0,5.0,69,0.00,,,0.00,Wunderground v.1.15,2013-01-21 13:20:00,
2013-01-21 08:25:00,35.6,26.4,30.17,ENE,60,0.0,5.0,69,0.00,,,0.00,Wunderground v.1.15,2013-01-21 13:25:00,
2013-01-21 08:30:00,35.2,26.4,30.17,ENE,60,0.0,5.0,70,0.00,,,0.00,Wunderground v.1.15,2013-01-21 13:30:00,
2013-01-21 08:35:00,35.2,26.0,30.17,ENE,75,1.0,1.0,69,0.00,,,0.00,Wunderground v.1.15,2013-01-21 13:35:00,
2013-01-21 08:40:00,35.1,26.3,30.17,ENE,75,0.0,5.0,70,0.00,,,0.00,Wunderground v.1.15,2013-01-21 13:40:00,
2013-01-21 08:45:00,35.1,25.9,30.17,ENE,75,0.0,5.0,69,0.00,,,0.00,Wunderground v.1.15,2013-01-21 13:45:00,
2013-01-21 08:50:00,35.1,25.9,30.17,ENE,75,0.0,5.0,69,0.00,,,0.00,Wunderground v.1.15,2013-01-21 13:50:00,
2013-01-21 08:55:00,35.0,25.9,30.17,South,170,0.0,5.0,69,0.00,,,0.00,Wunderground v.1.15,2013-01-21 13:55:00,
2013-01-21 09:05:00,34.9,26.4,30.17,South,170,0.0,5.0,71,0.00,,,0.00,Wunderground v.1.15,2013-01-21 14:05:00,
2013-01-21 09:10:00,35.0,26.2,30.17,South,170,0.0,5.0,70,0.00,,,0.00,Wunderground v.1.15,2013-01-21 14:10:00,
2013-01-21 09:15:00,35.4,26.6,30.18,South,170,0.0,5.0,70,0.00,,,0.00,Wunderground v.1.15,2013-01-21 14:15:00,
2013-01-21 09:20:00,36.1,26.9,30.18,South,170,0.0,5.0,69,0.00,,,0.00,Wunderground v.1.15,2013-01-21 14:20:00,
2013-01-21 09:25:00,36.7,27.1,30.18,South,170,0.0,5.0,68,0.00,,,0.00,Wunderground v.1.15,2013-01-21 14:25:00,
2013-01-21 09:35:00,37.7,27.7,30.19,South,170,0.0,5.0,67,0.00,,,0.00,Wunderground v.1.15,2013-01-21 14:35:00,
2013-01-21 09:40:00,38.2,27.5,30.19,ENE,62,1.0,5.0,65,0.00,,,0.00,Wunderground v.1.15,2013-01-21 14:40:00,
2013-01-21 09:45:00,38.7,27.9,30.19,ENE,63,1.0,1.0,65,0.00,,,0.00,Wunderground v.1.15,2013-01-21 14:45:00,
2013-01-21 09:50:00,39.4,28.2,30.19,SE,138,1.0,5.0,64,0.00,,,0.00,Wunderground v.1.15,2013-01-21 14:50:00,
2013-01-21 09:55:00,40.0,28.0,30.19,NE,34,1.0,5.0,62,0.00,,,0.00,Wunderground v.1.15,2013-01-21 14:55:00,
2013-01-21 10:05:00,40.4,27.2,30.19,East,87,2.0,5.0,59,0.00,,,0.00,Wunderground v.1.15,2013-01-21 15:05:00,
2013-01-21 10:10:00,40.8,27.2,30.19,East,80,2.0,5.0,58,0.00,,,0.00,Wunderground v.1.15,2013-01-21 15:10:00,
2013-01-21 10:15:00,41.0,27.3,30.18,East,91,1.0,5.0,58,0.00,,,0.00,Wunderground v.1.15,2013-01-21 15:15:00,
2013-01-21 10:20:00,41.2,27.5,30.18,East,86,1.0,5.0,58,0.00,,,0.00,Wunderground v.1.15,2013-01-21 15:20:00,
2013-01-21 10:25:00,41.7,27.6,30.18,SE,129,1.0,5.0,57,0.00,,,0.00,Wunderground v.1.15,2013-01-21 15:25:00,
2013-01-21 10:30:00,42.1,27.9,30.18,SSW,202,2.0,5.0,57,0.00,,,0.00,Wunderground v.1.15,2013-01-21 15:30:00,
2013-01-21 10:35:00,42.1,27.5,30.18,SSW,212,2.0,5.0,56,0.00,,,0.00,Wunderground v.1.15,2013-01-21 15:35:00,
2013-01-21 10:40:00,42.1,27.5,30.18,South,182,2.0,5.0,56,0.00,,,0.00,Wunderground v.1.15,2013-01-21 15:40:00,
2013-01-21 10:50:00,42.1,27.5,30.18,South,188,3.0,5.0,56,0.00,,,0.00,Wunderground v.1.15,2013-01-21 15:50:00,
2013-01-21 10:55:00,42.5,28.3,30.18,SSE,165,2.0,5.0,57,0.00,,,0.00,Wunderground v.1.15,2013-01-21 15:55:00,
2013-01-21 11:05:00,43.6,28.0,30.18,SE,131,2.0,2.0,54,0.00,,,0.00,Wunderground v.1.15,2013-01-21 16:05:00,
2013-01-21 11:10:00,43.9,26.9,30.18,SE,145,2.0,5.0,51,0.00,,,0.00,Wunderground v.1.15,2013-01-21 16:10:00,
2013-01-21 11:15:00,44.1,27.1,30.18,South,176,2.0,2.0,51,0.00,,,0.00,Wunderground v.1.15,2013-01-21 16:15:00,
2013-01-21 11:20:00,44.4,27.4,30.18,SSE,166,2.0,5.0,51,0.00,,,0.00,Wunderground v.1.15,2013-01-21 16:20:00,
2013-01-21 11:25:00,44.8,27.3,30.18,ESE,112,2.0,5.0,50,0.00,,,0.00,Wunderground v.1.15,2013-01-21 16:25:00,
2013-01-21 11:30:00,44.9,26.9,30.18,South,180,3.0,5.0,49,0.00,,,0.00,Wunderground v.1.15,2013-01-21 16:30:00,
2013-01-21 11:35:00,45.3,26.7,30.18,SW,218,2.0,2.0,48,0.00,,,0.00,Wunderground v.1.15,2013-01-21 16:35:00,
2013-01-21 11:40:00,45.8,27.2,30.17,SE,132,2.0,5.0,48,0.00,,,0.00,Wunderground v.1.15,2013-01-21 16:40:00,
2013-01-21 11:45:00,45.8,27.2,30.17,NE,47,2.0,2.0,48,0.00,,,0.00,Wunderground v.1.15,2013-01-21 16:45:00,
2013-01-21 11:50:00,45.7,26.6,30.16,ESE,111,2.0,3.0,47,0.00,,,0.00,Wunderground v.1.15,2013-01-21 16:50:00,
2013-01-21 11:55:00,45.8,27.7,30.16,East,86,2.0,5.0,49,0.00,,,0.00,Wunderground v.1.15,2013-01-21 16:55:00,
2013-01-21 12:05:00,45.7,26.6,30.15,NW,312,3.0,3.0,47,0.00,,,0.00,Wunderground v.1.15,2013-01-21 17:05:00,
2013-01-21 12:10:00,46.0,26.9,30.15,West,262,2.0,5.0,47,0.00,,,0.00,Wunderground v.1.15,2013-01-21 17:10:00,
2013-01-21 12:15:00,46.5,27.3,30.15,ESE,117,2.0,5.0,47,0.00,,,0.00,Wunderground v.1.15,2013-01-21 17:15:00,
2013-01-21 12:20:00,46.5,27.3,30.13,NW,326,2.0,5.0,47,0.00,,,0.00,Wunderground v.1.15,2013-01-21 17:20:00,
2013-01-21 12:25:00,46.3,27.2,30.13,North,360,3.0,5.0,47,0.00,,,0.00,Wunderground v.1.15,2013-01-21 17:25:00,
2013-01-21 12:30:00,46.6,27.4,30.12,SW,227,3.0,5.0,47,0.00,,,0.00,Wunderground v.1.15,2013-01-21 17:30:00,
2013-01-21 12:35:00,47.0,26.7,30.12,NE,36,2.0,5.0,45,0.00,,,0.00,Wunderground v.1.15,2013-01-21 17:35:00,
2013-01-21 12:40:00,47.2,28.0,30.11,SE,134,2.0,5.0,47,0.00,,,0.00,Wunderground v.1.15,2013-01-21 17:40:00,
2013-01-21 12:45:00,48.2,28.4,30.11,East,90,2.0,2.0,46,0.00,,,0.00,Wunderground v.1.15,2013-01-21 17:45:00,
2013-01-21 12:50:00,48.5,28.1,30.10,SSW,204,2.0,5.0,45,0.00,,,0.00,Wunderground v.1.15,2013-01-21 17:50:00,
2013-01-21 12:55:00,49.0,28.0,30.10,SSE,151,3.0,3.0,44,0.00,,,0.00,Wunderground v.1.15,2013-01-21 17:55:00,
2013-01-21 13:05:00,49.2,28.2,30.09,SSW,198,3.0,3.0,44,0.00,,,0.00,Wunderground v.1.15,2013-01-21 18:05:00,
2013-01-21 13:10:00,49.4,28.4,30.09,East,94,3.0,5.0,44,0.00,,,0.00,Wunderground v.1.15,2013-01-21 18:10:00,
2013-01-21 13:15:00,49.4,27.8,30.09,South,187,2.0,5.0,43,0.00,,,0.00,Wunderground v.1.15,2013-01-21 18:15:00,
2013-01-21 13:20:00,49.5,28.5,30.09,South,173,2.0,5.0,44,0.00,,,0.00,Wunderground v.1.15,2013-01-21 18:20:00,
2013-01-21 13:25:00,49.2,28.2,30.09,SE,135,3.0,3.0,44,0.00,,,0.00,Wunderground v.1.15,2013-01-21 18:25:00,
2013-01-21 13:30:00,48.9,28.5,30.09,NW,313,3.0,5.0,45,0.00,,,0.00,Wunderground v.1.15,2013-01-21 18:30:00,
2013-01-21 13:35:00,49.3,28.8,30.09,SW,221,2.0,2.0,45,0.00,,,0.00,Wunderground v.1.15,2013-01-21 18:35:00,
2013-01-21 13:40:00,49.5,28.5,30.09,East,96,3.0,3.0,44,0.00,,,0.00,Wunderground v.1.15,2013-01-21 18:40:00,
2013-01-21 13:45:00,49.5,29.0,30.09,SSW,195,3.0,5.0,45,0.00,,,0.00,Wunderground v.1.15,2013-01-21 18:45:00,
2013-01-21 13:50:00,49.6,29.1,30.08,SSE,160,2.0,5.0,45,0.00,,,0.00,Wunderground v.1.15,2013-01-21 18:50:00,
2013-01-21 13:55:00,50.0,29.5,30.08,WSW,249,2.0,5.0,45,0.00,,,0.00,Wunderground v.1.15,2013-01-21 18:55:00,
2013-01-21 14:05:00,49.8,29.3,30.08,NNW,342,3.0,5.0,45,0.00,,,0.00,Wunderground v.1.15,2013-01-21 19:05:00,
2013-01-21 14:10:00,49.4,29.5,30.08,South,189,3.0,5.0,46,0.00,,,0.00,Wunderground v.1.15,2013-01-21 19:10:00,
2013-01-21 14:15:00,49.9,29.4,30.08,South,188,2.0,5.0,45,0.00,,,0.00,Wunderground v.1.15,2013-01-21 19:15:00,
2013-01-21 14:20:00,50.5,29.4,30.08,South,184,2.0,5.0,44,0.00,,,0.00,Wunderground v.1.15,2013-01-21 19:20:00,
2013-01-21 14:25:00,50.3,28.6,30.08,NNW,339,2.0,5.0,43,0.00,,,0.00,Wunderground v.1.15,2013-01-21 19:25:00,
2013-01-21 14:30:00,49.9,28.3,30.08,East,88,2.0,5.0,43,0.00,,,0.00,Wunderground v.1.15,2013-01-21 19:30:00,
2013-01-21 14:35:00,49.6,28.6,30.08,SW,219,2.0,5.0,44,0.00,,,0.00,Wunderground v.1.15,2013-01-21 19:35:00,
2013-01-21 14:40:00,49.8,28.7,30.08,WNW,286,2.0,5.0,44,0.00,,,0.00,Wunderground v.1.15,2013-01-21 19:40:00,
2013-01-21 14:45:00,50.0,28.4,30.09,ESE,121,2.0,5.0,43,0.00,,,0.00,Wunderground v.1.15,2013-01-21 19:45:00,
2013-01-21 14:50:00,49.6,28.0,30.08,WSW,247,2.0,5.0,43,0.00,,,0.00,Wunderground v.1.15,2013-01-21 19:50:00,
2013-01-21 14:55:00,49.4,27.8,30.08,South,169,2.0,5.0,43,0.00,,,0.00,Wunderground v.1.15,2013-01-21 19:55:00,
2013-01-21 15:05:00,49.1,27.5,30.08,South,185,2.0,5.0,43,0.00,,,0.00,Wunderground v.1.15,2013-01-21 20:05:00,
2013-01-21 15:10:00,49.0,27.5,30.08,SSW,200,2.0,5.0,43,0.00,,,0.00,Wunderground v.1.15,2013-01-21 20:10:00,
2013-01-21 15:15:00,48.8,27.3,30.08,WSW,242,3.0,3.0,43,0.00,,,0.00,Wunderground v.1.15,2013-01-21 20:15:00,
2013-01-21 15:20:00,48.8,27.3,30.08,SSE,168,3.0,5.0,43,0.00,,,0.00,Wunderground v.1.15,2013-01-21 20:20:00,
2013-01-21 15:25:00,48.9,27.4,30.07,South,181,2.0,2.0,43,0.00,,,0.00,Wunderground v.1.15,2013-01-21 20:25:00,
2013-01-21 15:30:00,49.2,27.1,30.07,ENE,72,2.0,3.0,42,0.00,,,0.00,Wunderground v.1.15,2013-01-21 20:30:00,
2013-01-21 15:35:00,49.0,26.9,30.08,North,5,2.0,5.0,42,0.00,,,0.00,Wunderground v.1.15,2013-01-21 20:35:00,
2013-01-21 15:40:00,48.7,26.6,30.08,South,190,2.0,5.0,42,0.00,,,0.00,Wunderground v.1.15,2013-01-21 20:40:00,
2013-01-21 15:45:00,48.7,27.2,30.08,SSE,154,3.0,5.0,43,0.00,,,0.00,Wunderground v.1.15,2013-01-21 20:45:00,
2013-01-21 15:50:00,48.9,26.2,30.08,SE,132,3.0,5.0,41,0.00,,,0.00,Wunderground v.1.15,2013-01-21 20:50:00,
2013-01-21 15:55:00,48.9,25.6,30.08,SSW,213,3.0,3.0,40,0.00,,,0.00,Wunderground v.1.15,2013-01-21 20:55:00,
2013-01-21 16:05:00,48.9,25.6,30.09,SE,126,2.0,2.0,40,0.00,,,0.00,Wunderground v.1.15,2013-01-21 21:05:00,
2013-01-21 16:10:00,48.6,25.3,30.08,SW,218,2.0,5.0,40,0.00,,,0.00,Wunderground v.1.15,2013-01-21 21:10:00,
2013-01-21 16:15:00,48.5,25.2,30.09,SW,235,2.0,5.0,40,0.00,,,0.00,Wunderground v.1.15,2013-01-21 21:15:00,
2013-01-21 16:20:00,48.1,23.7,30.08,ESE,107,2.0,7.0,38,0.00,,,0.00,Wunderground v.1.15,2013-01-21 21:20:00,
2013-01-21 16:25:00,47.4,23.0,30.08,NE,38,2.0,5.0,38,0.00,,,0.00,Wunderground v.1.15,2013-01-21 21:25:00,
2013-01-21 16:30:00,47.2,22.9,30.08,North,360,2.0,5.0,38,0.00,,,0.00,Wunderground v.1.15,2013-01-21 21:30:00,
2013-01-21 16:35:00,47.5,22.5,30.08,SE,137,2.0,2.0,37,0.00,,,0.00,Wunderground v.1.15,2013-01-21 21:35:00,
2013-01-21 16:40:00,47.1,22.8,30.08,South,186,2.0,5.0,38,0.00,,,0.00,Wunderground v.1.15,2013-01-21 21:40:00,
2013-01-21 16:45:00,47.3,21.7,30.08,SSW,195,3.0,5.0,36,0.00,,,0.00,Wunderground v.1.15,2013-01-21 21:45:00,
2013-01-21 16:50:00,47.4,21.7,30.08,SSW,200,4.0,5.0,36,0.00,,,0.00,Wunderground v.1.15,2013-01-21 21:50:00,
2013-01-21 16:55:00,47.1,21.5,30.08,South,180,3.0,5.0,36,0.00,,,0.00,Wunderground v.1.15,2013-01-21 21:55:00,
2013-01-21 17:05:00,46.6,20.4,30.09,SE,146,3.0,3.0,35,0.00,,,0.00,Wunderground v.1.15,2013-01-21 22:05:00,
2013-01-21 17:10:00,46.3,19.4,30.10,SSW,212,2.0,5.0,34,0.00,,,0.00,Wunderground v.1.15,2013-01-21 22:10:00,
2013-01-21 17:15:00,46.2,19.3,30.10,SSW,194,2.0,5.0,34,0.00,,,0.00,Wunderground v.1.15,2013-01-21 22:15:00,
2013-01-21 17:20:00,45.5,18.7,30.10,SE,146,2.0,5.0,34,0.00,,,0.00,Wunderground v.1.15,2013-01-21 22:20:00,
2013-01-21 17:25:00,44.5,17.8,30.10,SSW,192,2.0,5.0,34,0.00,,,0.00,Wunderground v.1.15,2013-01-21 22:25:00,
2013-01-21 17:30:00,43.6,17.7,30.11,North,360,2.0,5.0,35,0.00,,,0.00,Wunderground v.1.15,2013-01-21 22:30:00,
2013-01-21 17:35:00,42.8,17.7,30.11,SSW,196,2.0,5.0,36,0.00,,,0.00,Wunderground v.1.15,2013-01-21 22:35:00,
2013-01-21 17:40:00,42.0,16.3,30.11,SSW,205,3.0,5.0,35,0.00,,,0.00,Wunderground v.1.15,2013-01-21 22:40:00,
2013-01-21 17:45:00,41.4,15.8,30.12,South,178,3.0,8.0,35,0.00,,,0.00,Wunderground v.1.15,2013-01-21 22:45:00,
2013-01-21 17:50:00,40.9,16.0,30.12,SSW,193,4.0,8.0,36,0.00,,,0.00,Wunderground v.1.15,2013-01-21 22:50:00,
2013-01-21 17:55:00,40.6,15.7,30.12,SW,230,3.0,3.0,36,0.00,,,0.00,Wunderground v.1.15,2013-01-21 22:55:00,
2013-01-21 18:05:00,40.2,16.0,30.12,SSE,150,2.0,5.0,37,0.00,,,0.00,Wunderground v.1.15,2013-01-21 23:05:00,
2013-01-21 18:10:00,39.8,15.6,30.11,South,180,3.0,6.0,37,0.00,,,0.00,Wunderground v.1.15,2013-01-21 23:10:00,
2013-01-21 18:15:00,39.6,14.8,30.11,South,188,4.0,5.0,36,0.00,,,0.00,Wunderground v.1.15,2013-01-21 23:15:00,
2013-01-21 18:20:00,39.4,15.3,30.11,South,190,3.0,5.0,37,0.00,,,0.00,Wunderground v.1.15,2013-01-21 23:20:00,
2013-01-21 18:25:00,39.3,15.2,30.11,SSW,213,3.0,5.0,37,0.00,,,0.00,Wunderground v.1.15,2013-01-21 23:25:00,
2013-01-21 18:30:00,39.1,16.8,30.11,NNE,18,3.0,5.0,40,0.00,,,0.00,Wunderground v.1.15,2013-01-21 23:30:00,
2013-01-21 18:35:00,38.8,15.3,30.11,South,170,2.0,5.0,38,0.00,,,0.00,Wunderground v.1.15,2013-01-21 23:35:00,
2013-01-21 18:40:00,38.7,17.5,30.11,SSE,165,1.0,5.0,42,0.00,,,0.00,Wunderground v.1.15,2013-01-21 23:40:00,
2013-01-21 18:45:00,38.6,15.7,30.11,SSW,198,2.0,2.0,39,0.00,,,0.00,Wunderground v.1.15,2013-01-21 23:45:00,
2013-01-21 18:50:00,38.4,16.1,30.11,SSE,149,2.0,3.0,40,0.00,,,0.00,Wunderground v.1.15,2013-01-21 23:50:00,
2013-01-21 18:55:00,38.3,15.5,30.11,SSW,192,2.0,5.0,39,0.00,,,0.00,Wunderground v.1.15,2013-01-21 23:55:00,
2013-01-21 19:05:00,38.0,15.2,30.11,South,190,2.0,5.0,39,0.00,,,0.00,Wunderground v.1.15,2013-01-22 00:05:00,
2013-01-21 19:10:00,37.9,15.7,30.11,SSW,207,3.0,5.0,40,0.00,,,0.00,Wunderground v.1.15,2013-01-22 00:10:00,
2013-01-21 19:20:00,38.0,15.8,30.12,South,189,3.0,5.0,40,0.00,,,0.00,Wunderground v.1.15,2013-01-22 00:20:00,
2013-01-21 19:25:00,37.8,15.0,30.12,ESE,119,3.0,3.0,39,0.00,,,0.00,Wunderground v.1.15,2013-01-22 00:25:00,
2013-01-21 19:30:00,37.7,16.1,30.12,WSW,255,2.0,5.0,41,0.00,,,0.00,Wunderground v.1.15,2013-01-22 00:30:00,
2013-01-21 19:35:00,37.5,15.3,30.13,South,172,2.0,5.0,40,0.00,,,0.00,Wunderground v.1.15,2013-01-22 00:35:00,
2013-01-21 19:45:00,37.3,16.3,30.13,SSE,163,2.0,5.0,42,0.00,,,0.00,Wunderground v.1.15,2013-01-22 00:45:00,
2013-01-21 19:50:00,37.2,15.6,30.12,East,90,2.0,5.0,41,0.00,,,0.00,Wunderground v.1.15,2013-01-22 00:50:00,
2013-01-21 19:55:00,37.0,16.0,30.12,SSE,160,2.0,2.0,42,0.00,,,0.00,Wunderground v.1.15,2013-01-22 00:55:00,
2013-01-21 20:05:00,36.8,16.4,30.12,South,189,2.0,2.0,43,0.00,,,0.00,Wunderground v.1.15,2013-01-22 01:05:00,
2013-01-21 20:10:00,36.6,16.2,30.12,SW,225,1.0,5.0,43,0.00,,,0.00,Wunderground v.1.15,2013-01-22 01:10:00,
2013-01-21 20:15:00,36.4,17.1,30.11,West,261,2.0,9.0,45,0.00,,,0.00,Wunderground v.1.15,2013-01-22 01:15:00,
2013-01-21 20:20:00,36.5,16.6,30.11,SE,134,3.0,9.0,44,0.00,,,0.00,Wunderground v.1.15,2013-01-22 01:20:00,
2013-01-21 20:25:00,36.4,15.5,30.11,South,173,2.0,5.0,42,0.00,,,0.00,Wunderground v.1.15,2013-01-22 01:25:00,
2013-01-21 20:30:00,36.4,17.6,30.11,SSW,205,2.0,5.0,46,0.00,,,0.00,Wunderground v.1.15,2013-01-22 01:30:00,
2013-01-21 20:35:00,36.2,15.8,30.12,South,175,2.0,5.0,43,0.00,,,0.00,Wunderground v.1.15,2013-01-22 01:35:00,
2013-01-21 20:40:00,36.1,15.7,30.11,ENE,67,3.0,5.0,43,0.00,,,0.00,Wunderground v.1.15,2013-01-22 01:40:00,
2013-01-21 20:50:00,36.0,17.2,30.11,South,174,2.0,5.0,46,0.00,,,0.00,Wunderground v.1.15,2013-01-22 01:50:00,
2013-01-21 20:55:00,36.0,16.2,30.12,ENE,78,3.0,5.0,44,0.00,,,0.00,Wunderground v.1.15,2013-01-22 01:55:00,
2013-01-21 21:05:00,36.1,16.3,30.12,SSW,195,3.0,3.0,44,0.00,,,0.00,Wunderground v.1.15,2013-01-22 02:05:00,
2013-01-21 21:10:00,36.0,16.2,30.12,South,188,2.0,5.0,44,0.00,,,0.00,Wunderground v.1.15,2013-01-22 02:10:00,
2013-01-21 21:15:00,36.0,15.6,30.13,South,182,3.0,3.0,43,0.00,,,0.00,Wunderground v.1.15,2013-01-22 02:15:00,
2013-01-21 21:20:00,36.0,16.2,30.12,North,355,3.0,5.0,44,0.00,,,0.00,Wunderground v.1.15,2013-01-22 02:20:00,
2013-01-21 21:25:00,35.9,16.1,30.12,South,171,2.0,2.0,44,0.00,,,0.00,Wunderground v.1.15,2013-01-22 02:25:00,
2013-01-21 21:30:00,35.7,15.9,30.12,SE,144,2.0,3.0,44,0.00,,,0.00,Wunderground v.1.15,2013-01-22 02:30:00,
2013-01-21 21:35:00,35.4,15.6,30.12,East,81,2.0,5.0,44,0.00,,,0.00,Wunderground v.1.15,2013-01-22 02:35:00,
2013-01-21 21:40:00,35.3,16.6,30.13,SE,130,3.0,5.0,46,0.00,,,0.00,Wunderground v.1.15,2013-01-22 02:40:00,
2013-01-21 21:45:00,34.9,17.2,30.13,SSE,159,3.0,3.0,48,0.00,,,0.00,Wunderground v.1.15,2013-01-22 02:45:00,
2013-01-21 21:50:00,34.7,16.5,30.13,SE,124,2.0,5.0,47,0.00,,,0.00,Wunderground v.1.15,2013-01-22 02:50:00,
2013-01-21 21:55:00,34.4,15.7,30.13,South,172,2.0,7.0,46,0.00,,,0.00,Wunderground v.1.15,2013-01-22 02:55:00,
2013-01-21 22:05:00,34.3,15.6,30.13,NE,53,2.0,5.0,46,0.00,,,0.00,Wunderground v.1.15,2013-01-22 03:05:00,
2013-01-21 22:10:00,34.2,16.5,30.13,South,174,3.0,6.0,48,0.00,,,0.00,Wunderground v.1.15,2013-01-22 03:10:00,
2013-01-21 22:15:00,34.0,16.8,30.13,NW,325,3.0,3.0,49,0.00,,,0.00,Wunderground v.1.15,2013-01-22 03:15:00,
2013-01-21 22:20:00,33.6,16.5,30.13,East,98,2.0,7.0,49,0.00,,,0.00,Wunderground v.1.15,2013-01-22 03:20:00,
2013-01-21 22:25:00,33.4,15.8,30.13,WSW,257,2.0,8.0,48,0.00,,,0.00,Wunderground v.1.15,2013-01-22 03:25:00,
2013-01-21 22:30:00,33.5,15.4,30.13,North,355,2.0,8.0,47,0.00,,,0.00,Wunderground v.1.15,2013-01-22 03:30:00,
2013-01-21 22:35:00,33.3,15.7,30.13,SE,146,2.0,2.0,48,0.00,,,0.00,Wunderground v.1.15,2013-01-22 03:35:00,
2013-01-21 22:40:00,32.9,15.3,30.13,ESE,115,2.0,5.0,48,0.00,,,0.00,Wunderground v.1.15,2013-01-22 03:40:00,
2013-01-21 22:45:00,32.5,15.4,30.13,ESE,105,2.0,5.0,49,0.00,,,0.00,Wunderground v.1.15,2013-01-22 03:45:00,
2013-01-21 22:55:00,31.9,15.3,30.13,SSW,202,2.0,6.0,50,0.00,,,0.00,Wunderground v.1.15,2013-01-22 03:55:00,
2013-01-21 23:05:00,31.7,14.2,30.13,SE,133,2.0,5.0,48,0.00,,,0.00,Wunderground v.1.15,2013-01-22 04:05:00,
2013-01-21 23:10:00,31.6,14.6,30.13,South,178,2.0,5.0,49,0.00,,,0.00,Wunderground v.1.15,2013-01-22 04:10:00,
2013-01-21 23:15:00,31.5,14.0,30.13,SSE,161,2.0,5.0,48,0.00,,,0.00,Wunderground v.1.15,2013-01-22 04:15:00,
2013-01-21 23:25:00,31.3,13.9,30.13,SSE,161,2.0,5.0,48,0.00,,,0.00,Wunderground v.1.15,2013-01-22 04:25:00,
2013-01-21 23:30:00,31.0,14.0,30.14,SSE,157,1.0,5.0,49,0.00,,,0.00,Wunderground v.1.15,2013-01-22 04:30:00,
2013-01-21 23:35:00,30.8,13.4,30.13,ESE,117,1.0,5.0,48,0.00,,,0.00,Wunderground v.1.15,2013-01-22 04:35:00,
2013-01-21 23:40:00,30.7,13.8,30.14,ESE,116,1.0,5.0,49,0.00,,,0.00,Wunderground v.1.15,2013-01-22 04:40:00,
2013-01-21 23:45:00,30.5,14.0,30.13,SW,222,1.0,5.0,50,0.00,,,0.00,Wunderground v.1.15,2013-01-22 04:45:00,
2013-01-21 23:50:00,30.3,12.9,30.13,SSE,157,2.0,5.0,48,0.00,,,0.00,Wunderground v.1.15,2013-01-22 04:50:00,
2013-01-21 23:55:00,30.2,13.3,30.13,SSW,198,1.0,5.0,49,0.00,,,0.00,Wunderground v.1.15,2013-01-22 04:55:00,